[[{"header":{"parameterUnit":"m.s-1","parameterCategory":1,"la1":30.2991,"la2":30.254,"lo1":-89.0895,"lo2":-89.0444,"dy":0.0017,"dx":0.0017,"nx":28,"ny":28,"refTime":"2024-06-20T21:00:00:Z","depth":0,"parameterNumber":2,"parameterNumberName":"U-component_of_WINDS"},"data":[0,0,0,0,0,0,0,0,0,0,0,0,0,0,0,0,0,0,0,0,0,0,0,0,0,0,0,0,0,0,0,0,0,0,0,0,0,0,0,0,0,0,0,0,0,0,0,0,0,0,0,0,0,0,0,0,0,0,-6.0183,-6.0184,0,-6.0281,-6.0282,-6.0283,-6.0222,-6.022,-6.0217,-6.0214,-6.0312,-6.0317,-6.0323,0,0,0,0,0,0,0,0,0,0,0,0,0,-5.9943,-5.9947,-6.0183,-6.0184,-6.0185,-6.0281,-6.0282,-6.0283,-6.0223,-6.0219,-6.0216,-6.0213,-6.0311,-6.0317,-6.0323,0,0,0,0,0,0,0,0,0,0,0,0,0,-6.0044,-5.9949,-6.0183,-6.0167,-6.0166,-6.028,-6.0282,-6.0284,-6.0224,-6.0219,-6.0215,-6.0211,-6.0308,-6.0316,-6.0324,-6.0459,0,0,-6.0348,-6.0352,0,0,0,0,0,0,0,0,-6.0039,-6.0053,-6.0168,-6.0168,-6.0168,-6.0235,-6.0233,-6.0342,-6.0225,-6.0202,-6.0214,-6.0209,-6.029,-6.0299,-6.0327,-6.0463,-6.0467,-6.0349,-6.0354,-6.0357,-6.0359,0,0,0,0,0,0,0,-6.0032,-6.0049,-6.0222,-6.017,-6.017,-6.0154,-6.0164,-6.0254,-6.0269,-6.0203,-6.0199,-6.0212,-6.0289,-6.0319,-6.0329,-6.0469,-6.0349,-6.0356,-6.0361,-6.0364,-6.0721,-6.0726,0,0,0,0,0,0,-6.0026,-6.0043,-6.0218,-6.0224,-6.0091,-6.0162,-6.0173,-6.0218,-6.0268,-6.0271,-6.0215,-6.0209,-6.0308,-6.0319,-6.0332,-6.0493,-6.0357,-6.0364,-6.0369,-6.0717,-6.0722,-6.0727,0,0,0,0,0,0,-6.0021,-6.0042,-6.0215,-6.0133,-6.0154,-6.0171,-6.0222,-6.0222,-6.0252,-6.0277,-6.0279,-6.0244,-6.0305,-6.0321,-6.0428,-6.0495,-6.0368,-6.0375,-6.0711,-6.0718,-6.0725,-6.0816,0,0,0,0,0,0,-6.0015,-6.0041,-6.0092,-6.0135,-6.0158,-6.0309,-6.0226,-6.0227,-6.0266,-6.0258,-6.0304,-6.0307,-6.0303,-6.0416,-6.0436,-6.0504,-6.0381,-6.0705,-6.0714,-6.0723,-6.0807,-6.0825,-6.0841,0,0,0,0,0,-6.0006,-6.0114,-6.0095,-6.0117,-6.0223,-6.0313,-6.0327,-6.032,-6.0272,-6.0324,-6.0339,-6.0306,-6.0485,-6.0428,-6.0449,-6.0521,-6.0701,-6.0712,-6.0722,-6.0799,-6.0821,-6.084,0,0,0,0,0,0,-6.0078,-6.0119,-6.0099,-6.0223,-6.0265,-6.0303,-6.0368,-6.0344,-6.04,-6.039,-6.038,-6.0391,-6.0502,-6.0522,-6.0458,-6.0654,-6.0585,-6.0601,-6.0636,-6.0658,-6.0675,-6.0667,-6.0388,0,0,0,0,0,-6.0108,-6.0179,-6.021,-6.0317,-6.0339,-6.035,-6.0389,-6.0381,-6.0424,-6.0441,-6.0465,-6.0507,-6.0573,-6.0617,-6.0679,-6.081,-6.0819,-6.087,-6.0887,-6.09,-6.0913,-6.0984,-6.1007,-6.0763,-6.0762,-6.0762,0,0,-6.0171,-6.0202,-6.0247,-6.0332,-6.0364,-6.0437,-6.0365,-6.0445,-6.0499,-6.0453,-6.0555,-6.0575,-6.0622,-6.0741,-6.0795,-6.0761,-6.0983,-6.0914,-6.0925,-6.093,-6.0998,-6.1021,-6.1041,-6.077,-6.0768,-6.0767,0,0,-6.0323,-6.0354,-6.0446,-6.048,-6.0529,-6.0536,-6.0559,-6.0601,-6.0612,-6.0715,-6.0682,-6.0746,-6.086,-6.0895,-6.0927,-6.1095,-6.1066,-6.1116,-6.1204,-6.1273,-6.1292,-6.1309,-6.1368,-6.139,-6.1129,-6.1129,-6.1129,0,-6.0395,-6.0504,-6.0496,-6.0579,-6.0618,-6.0581,-6.0674,-6.0707,-6.0774,-6.0801,-6.0763,-6.0906,-6.0934,-6.1062,-6.1103,-6.1131,-6.1156,-6.1109,-6.129,-6.1307,-6.1323,-6.1379,-6.1401,-6.1135,-6.1134,-6.1133,-6.1133,0,-6.0589,-6.0665,-6.0734,-6.0801,-6.0847,-6.0934,-6.094,-6.0988,-6.0976,-6.0987,-6.1093,-6.1127,-6.1195,-6.1225,-6.1214,-6.1352,-6.1329,-6.1291,-6.1221,-6.1352,-6.1404,-6.1426,-6.1143,-6.1141,-6.1139,-6.1138,0,0,-6.0787,-6.085,-6.0875,-6.0905,-6.0958,-6.1016,-6.1103,-6.1171,-6.1211,-6.126,-6.1331,-6.143,-6.1395,-6.1432,-6.1425,-6.1486,-6.1616,-6.144,-6.1441,-6.1471,-6.1769,-6.1797,-6.1822,-6.1598,-6.1602,-6.1605,-6.1765,0,-6.0941,-6.1092,-6.1089,-6.1229,-6.1299,-6.1266,-6.1341,-6.1382,-6.1395,-6.1456,-6.1471,-6.154,-6.1489,-6.1512,-6.1571,-6.1588,-6.1676,-6.1576,-6.1664,-6.1667,-6.1651,-6.1849,-6.1879,-6.2027,-6.1785,-6.1789,-6.1792,0,-6.114,-6.1196,-6.1344,-6.1387,-6.1417,-6.1484,-6.1547,-6.1606,-6.1651,-6.1657,-6.17,-6.1683,-6.1771,-6.17,-6.1821,-6.1753,-6.1789,-6.1803,-6.1809,-6.1815,-6.1736,-6.186,-6.2075,-6.2097,-6.1824,-6.1821,-6.1819,0,-6.1269,-6.1381,-6.1484,-6.1511,-6.1564,-6.1612,-6.1637,-6.1678,-6.172,-6.1774,-6.1801,-6.1865,-6.19,-6.195,-6.1951,-6.19,-6.2073,-6.2003,-6.2079,-6.2079,-6.2115,-6.2113,-6.2338,-6.2141,-6.2141,-6.214,-6.214,0,-6.144,-6.1532,-6.1542,-6.1605,-6.1707,-6.1703,-6.1803,-6.1823,-6.186,-6.1926,-6.1902,-6.1965,-6.1964,-6.2027,-6.2029,-6.2128,-6.2145,-6.2151,-6.215,-6.2152,-6.2151,-6.2174,-6.2163,-6.2146,-6.2145,-6.2144,-6.2143,0,-6.16,-6.1611,-6.172,-6.1763,-6.1776,-6.1848,-6.1884,-6.1944,-6.1956,-6.204,-6.206,-6.2078,-6.2152,-6.2159,-6.2245,-6.2246,-6.2366,-6.2354,-6.235,-6.2348,-6.2423,-6.2416,-6.267,-6.2702,-6.2486,-6.2488,-6.249,0,-6.1708,-6.1777,-6.1828,-6.1871,-6.1898,-6.1968,-6.201,-6.201,-6.2055,-6.2113,-6.2166,-6.2238,-6.2295,-6.2415,-6.2435,-6.2501,-6.249,-6.2575,-6.25,-6.25,-6.249,-6.2485,-6.2492,-6.2589,-6.2591,-6.2593,-6.2594,0,-6.1898,-6.1901,-6.1963,-6.2029,-6.208,-6.2131,-6.2179,-6.2216,-6.2221,-6.2273,-6.2349,-6.2393,-6.2482,-6.2553,-6.2618,-6.2642,-6.262,-6.2619,-6.2639,-6.2641,-6.2636,-6.2639,-6.2388,-6.2612,-6.261,-6.2609,-6.2608,-6.2607,-6.2035,-6.2095,-6.214,-6.2211,-6.2247,-6.2293,-6.2352,-6.2372,-6.2435,-6.2507,-6.2503,-6.2587,-6.2631,-6.2716,-6.2746,-6.2811,-6.2783,-6.2813,-6.2821,-6.2828,-6.2835,-6.2627,-6.2823,-6.2822,-6.2822,-6.2822,-6.2821,0,-6.2223,-6.2251,-6.2316,-6.2384,-6.244,-6.2416,-6.2468,-6.2516,-6.259,-6.2634,-6.2691,-6.2779,-6.2848,-6.2876,-6.2944,-6.2991,-6.2982,-6.3008,-6.3004,-6.301,-6.2857,-6.2832,-6.3014,-6.3014,-6.3014,-6.3014,-6.3014,-6.3014,-6.2327,-6.2428,-6.2436,-6.2555,-6.2582,-6.2665,-6.2697,-6.2739,-6.2774,-6.2873,-6.2931,-6.2948,-6.2986,-6.3057,-6.312,-6.3126,-6.3151,-6.3182,-6.3184,-6.304,-6.3021,-6.3002,-6.2978,-6.3188,-6.3188,-6.3331,-6.3332,-6.3333]},{"header":{"parameterUnit":"m.s-1","parameterCategory":1,"la1":30.2991,"la2":30.254,"lo1":-89.0895,"lo2":-89.0444,"dy":0.0017,"dx":0.0017,"nx":28,"ny":28,"refTime":"2024-06-20T21:00:00:Z","depth":0,"parameterNumber":3,"parameterNumberName":"V-component_of_WINDS"},"data":[0,0,0,0,0,0,0,0,0,0,0,0,0,0,0,0,0,0,0,0,0,0,0,0,0,0,0,0,0,0,0,0,0,0,0,0,0,0,0,0,0,0,0,0,0,0,0,0,0,0,0,0,0,0,0,0,0,0,1.2406,1.2407,0,1.2492,1.2493,1.2494,1.2554,1.2554,1.2555,1.2555,1.2641,1.2642,1.2644,0,0,0,0,0,0,0,0,0,0,0,0,0,1.2292,1.2294,1.2406,1.2407,1.2408,1.2492,1.2493,1.2494,1.2554,1.2554,1.2555,1.2555,1.264,1.2642,1.2644,0,0,0,0,0,0,0,0,0,0,0,0,0,1.2356,1.2295,1.2406,1.2448,1.2453,1.2492,1.2493,1.2494,1.2553,1.2554,1.2555,1.2556,1.2639,1.2642,1.2645,1.2648,0,0,1.2653,1.2654,0,0,0,0,0,0,0,0,1.2352,1.236,1.2441,1.2445,1.245,1.2513,1.2484,1.2546,1.2553,1.2515,1.2555,1.2556,1.2597,1.2604,1.2618,1.2652,1.2655,1.2653,1.2655,1.2656,1.2657,0,0,0,0,0,0,0,1.2348,1.2357,1.244,1.2442,1.2448,1.2462,1.2472,1.2496,1.2551,1.2518,1.2523,1.2533,1.26,1.2615,1.2621,1.2657,1.2653,1.2656,1.2657,1.2659,1.2698,1.2697,0,0,0,0,0,0,1.2337,1.2353,1.2437,1.2443,1.2402,1.2464,1.2475,1.2492,1.2551,1.2561,1.2532,1.2535,1.261,1.2617,1.2624,1.2632,1.2656,1.2659,1.266,1.2699,1.2698,1.2697,0,0,0,0,0,0,1.2334,1.2344,1.2434,1.2399,1.2412,1.2465,1.2484,1.2493,1.2509,1.2561,1.2571,1.2537,1.2611,1.262,1.2642,1.2635,1.266,1.2663,1.2699,1.2698,1.2697,1.2647,0,0,0,0,0,0,1.2331,1.2343,1.2345,1.2399,1.2413,1.245,1.2484,1.2495,1.2514,1.2518,1.2569,1.2578,1.2612,1.2637,1.2644,1.264,1.2665,1.27,1.2699,1.2698,1.2649,1.2644,1.264,0,0,0,0,0,1.2327,1.2326,1.2344,1.2354,1.2417,1.245,1.2458,1.2498,1.2513,1.2515,1.2549,1.2576,1.2635,1.2639,1.2648,1.2643,1.2701,1.2699,1.2698,1.2651,1.2645,1.264,0,0,0,0,0,0,1.2269,1.2334,1.2355,1.2372,1.2405,1.246,1.2464,1.2491,1.252,1.2523,1.2571,1.2582,1.2598,1.2623,1.2627,1.265,1.2671,1.2671,1.2633,1.2628,1.2623,1.2616,1.2667,0,0,0,0,0,1.2259,1.2281,1.2336,1.2346,1.2362,1.241,1.2426,1.2454,1.249,1.2504,1.2539,1.2573,1.2599,1.2615,1.2641,1.2654,1.2665,1.2655,1.265,1.2646,1.2646,1.2654,1.265,1.2693,1.2693,1.2693,0,0,1.2237,1.2275,1.2286,1.2336,1.2365,1.2386,1.2421,1.2442,1.2458,1.2507,1.253,1.2557,1.2597,1.2614,1.2624,1.2636,1.2637,1.2645,1.2641,1.2643,1.2652,1.2648,1.2645,1.2692,1.2692,1.2692,0,0,1.2208,1.224,1.2252,1.228,1.2324,1.2356,1.2359,1.241,1.243,1.2454,1.2491,1.2511,1.2555,1.2582,1.2602,1.2585,1.2611,1.2592,1.2567,1.2575,1.2572,1.2569,1.2563,1.256,1.2591,1.2591,1.2591,0,1.2175,1.221,1.2254,1.2273,1.2294,1.234,1.2352,1.2378,1.2427,1.244,1.2453,1.251,1.254,1.2564,1.256,1.2575,1.2579,1.2586,1.2569,1.2566,1.2565,1.2559,1.2556,1.2589,1.2589,1.2589,1.2589,0,1.2167,1.2191,1.2195,1.2243,1.2264,1.2279,1.2326,1.2342,1.2369,1.2399,1.2423,1.2462,1.2497,1.2505,1.2531,1.2533,1.2539,1.256,1.2582,1.2557,1.2553,1.2551,1.2585,1.2586,1.2587,1.2587,0,0,1.2104,1.2177,1.2178,1.22,1.2252,1.2271,1.2289,1.2325,1.2337,1.237,1.2386,1.2423,1.2443,1.2465,1.2494,1.2501,1.2485,1.2521,1.2523,1.2513,1.249,1.2473,1.247,1.2503,1.2503,1.2503,1.2486,0,1.2083,1.2117,1.2158,1.2179,1.2201,1.2245,1.2261,1.2294,1.2324,1.2346,1.2379,1.2404,1.2428,1.2442,1.2451,1.2485,1.2481,1.2487,1.2518,1.2518,1.2505,1.2468,1.2451,1.2433,1.2485,1.2484,1.2484,0,1.2062,1.2094,1.2117,1.2168,1.2179,1.2192,1.2228,1.225,1.2288,1.2309,1.2335,1.2367,1.2387,1.2408,1.2437,1.244,1.2455,1.2474,1.2474,1.2478,1.2499,1.247,1.2428,1.2425,1.2482,1.2482,1.2482,0,1.2013,1.2062,1.2082,1.21,1.216,1.2168,1.2193,1.2233,1.2252,1.2284,1.2297,1.233,1.2348,1.2373,1.2413,1.2424,1.2438,1.2461,1.2455,1.2454,1.2455,1.2454,1.2415,1.2466,1.2466,1.2466,1.2466,0,1.1985,1.1997,1.2061,1.2073,1.2088,1.2135,1.2148,1.2178,1.2213,1.2231,1.2272,1.2288,1.2341,1.2363,1.2394,1.2414,1.2421,1.2439,1.2447,1.2435,1.2432,1.2445,1.2447,1.2465,1.2465,1.2465,1.2466,0,1.1932,1.1975,1.2,1.2056,1.207,1.2078,1.2125,1.2139,1.2171,1.2194,1.2202,1.2252,1.2281,1.2324,1.2365,1.2386,1.24,1.2414,1.2387,1.2392,1.2383,1.2383,1.235,1.2347,1.24,1.2399,1.2399,0,1.1911,1.1921,1.1978,1.1994,1.2018,1.2043,1.2063,1.211,1.2129,1.2174,1.2182,1.2214,1.2242,1.2286,1.2326,1.2358,1.2372,1.2358,1.2377,1.2365,1.2371,1.237,1.2371,1.2353,1.2352,1.2352,1.2351,0,1.1869,1.189,1.1917,1.1953,1.1976,1.2005,1.2037,1.2048,1.2101,1.2121,1.2151,1.2173,1.2216,1.2247,1.2284,1.231,1.2339,1.2345,1.2346,1.2333,1.2317,1.2325,1.2374,1.2345,1.2346,1.2346,1.2347,1.2347,1.1831,1.1842,1.1884,1.1914,1.1943,1.1972,1.1987,1.2022,1.2049,1.2088,1.2114,1.2142,1.2182,1.2235,1.226,1.2283,1.2295,1.2295,1.2295,1.2295,1.229,1.2314,1.229,1.229,1.229,1.229,1.2291,0,1.179,1.182,1.1847,1.189,1.1913,1.194,1.1977,1.1995,1.202,1.2054,1.2081,1.2116,1.2147,1.219,1.2224,1.2234,1.2248,1.2241,1.2241,1.2246,1.2277,1.2274,1.2229,1.2229,1.2229,1.2229,1.2229,1.2229,1.1772,1.1793,1.1819,1.1855,1.1885,1.1914,1.1932,1.1959,1.1987,1.2025,1.2051,1.2079,1.2117,1.2154,1.2183,1.2195,1.2206,1.2194,1.221,1.2238,1.2244,1.2249,1.2246,1.2196,1.2196,1.2177,1.2177,1.2177]}]]